Weather Roundup
Issued by NWS

Home | Current Version | Previous Version | Text Only | Print | Product List | Glossary On
Versions: 1 2 3 4 5 6 7 8 9 10 11 12 13 14 15 16 17 18 19 20 21 22 23 24 25 26 27 28 29 30 31 32 33 34 35 36 37 38 39 40 41 42 43 44 45 46 47 48 49 50
000
NZUS93 KARX 272210
HRRWXR

CURRENT HOURLY OBSERVATIONS ACROSS
MUCH OF THE UPPER MISSISSIPPI VALLEY
NATIONAL WEATHER SERVICE LA CROSSE WI
500 PM CDT WED AUG 27 2014


...SOUTHEAST MINNESOTA...


CITY           SKY/WX    TMP DP  RH WIND       PRES   REMARKS
ROCHESTER      PTSUNNY   72  58  61 CALM      30.17F
ROCHESTER/MAYO FAIR      72  54  52 CALM      30.16F
WINONA         PTSUNNY   73  57  56 CALM      30.15F
AUSTIN         CLOUDY    72  61  68 E5        30.15F
ALBERT LEA     PTSUNNY   72  59  64 SE5       30.15F
DODGE CENTER   PTSUNNY   72  57  60 S3        30.16F
PRESTON        PTSUNNY   70  61  72 CALM      30.17F
OWATONNA       PTSUNNY   73  57  56 E3        30.15F
FARIBAULT      PTSUNNY   77  54  44 SE3       30.15F
$$

...ELSEWHERE IN MINNESOTA...


CITY           SKY/WX    TMP DP  RH WIND       PRES   REMARKS
MINNEAPOLIS    PTSUNNY   77  53  43 SE7       30.14F
INTNL FALLS    PTSUNNY   71  51  49 W7        30.13F
DULUTH         MOSUNNY   70  48  45 NW5       30.16F
RED WING       PTSUNNY   79  55  44 SE5       30.13F
REDWOOD FALLS  NOT AVBL
MANKATO        MOSUNNY   73  55  53 E7        30.14F
WORTHINGTON    NOT AVBL
FAIRMONT       NOT AVBL
$$

...SOUTHWEST WISCONSIN...


CITY           SKY/WX    TMP DP  RH WIND       PRES   REMARKS
LA CROSSE      PTSUNNY   76  57  51 W3        30.13F
PRAIRIE DU CHI CLOUDY    74  57  55 CALM      30.13F
BOSCOBEL       CLOUDY    77  57  50 CALM      30.14F
LONE ROCK      CLOUDY    79  59  50 N5        30.14F
PLATTEVILLE    CLOUDY    73  61  64 CALM      30.15F
FORT MC COY    PTSUNNY   76  55  47 N5        30.15F
CAMP DOUGLAS   MOSUNNY   76  60  58 NW5       30.15F
VIROQUA        FAIR      72  57  58 CALM      30.17S
WIS DELLS      PTSUNNY   74  55  50 W3        30.14F
$$

...ELSEWHERE IN WISCONSIN...


CITY           SKY/WX    TMP DP  RH WIND       PRES   REMARKS
MILWAUKEE      PTSUNNY   70  61  73 E8        30.15F
MADISON        PTSUNNY   77  57  50 N3        30.14F
GREEN BAY      PTSUNNY   74  58  57 NW3       30.15F
EAU CLAIRE     MOSUNNY   74  55  51 NE6       30.15F
BLACK RVR FLS  FAIR      76  54  47 NW3       30.15S
MEDFORD        SUNNY     69  52  54 NW7       30.17S
WAUSAU         SUNNY     73  51  46 N7        30.14F
WIS RAPIDS     MOSUNNY   75  57  53 NW7       30.16F
MARSHFIELD     MOSUNNY   72  54  53 W5        30.16F
RICE LAKE      SUNNY     71  53  52 N7        30.18F
$$

...NORTHEAST IOWA...


CITY           SKY/WX    TMP DP  RH WIND       PRES   REMARKS
WATERLOO       PTSUNNY   75  59  57 E7        30.11F
DUBUQUE        CLOUDY    75  59  57 NE8       30.14F
DECORAH        PTSUNNY   72  61  68 VRB6      30.14F
MASON CITY     PTSUNNY   74  59  59 SE8       30.14F
CHARLES CITY   PTSUNNY   73  61  64 E5        30.15F
OELWEIN        PTSUNNY   75  61  60 E6        30.13F
$$

...ELSEWHERE IN IOWA...


CITY           SKY/WX    TMP DP  RH WIND       PRES   REMARKS
DES MOINES     CLOUDY    76  67  73 E7        30.08F
IOWA CITY      PTSUNNY   77  66  68 NE8       30.10F
FORT DODGE     PTSUNNY   73  64  73 SE6       30.12F
MARSHALLTOWN   PTSUNNY   74  64  71 NE7       30.10F
CEDAR RAPIDS   PTSUNNY   77  61  57 NE7       30.10F
$$

...NORTHERN ILLINOIS...


CITY           SKY/WX    TMP DP  RH WIND       PRES   REMARKS
CHICAGO-OHARE  CLOUDY    75  61  61 NE12      30.13S
DUPAGE         CLOUDY    78  64  61 NE12      30.11F
CHICAGO-MIDWAY CLOUDY    75  64  68 E9        30.12S
MOLINE         CLOUDY    77  64  64 NE8       30.09F
ROCKFORD       CLOUDY    77  59  53 NW3       30.14F
STERLING       CLOUDY    77  63  61 NE8       30.12F
PEORIA         CLOUDY    83  69  62 N6        30.09F
$$

NOTE: "FAIR" INDICATES FEW OR NO CLOUDS BELOW 12,000 FEET WITH NO
SIGNIFICANT WEATHER AND/OR OBSTRUCTIONS TO VISIBILITY. WIND
SPEEDS ARE IN MILES-PER-HOUR.



USA.gov is the U.S. government's official web portal to all federal, state and local government web resources and services.